Regional Weather Roundup
Issued by NWS Lake Charles, LA

Current Version | Previous Version | Text Only | Print | Product List | Glossary On
Versions: 1 2 3 4 5 6 7 8 9 10 11 12 13 14 15 16 17 18 19 20 21 22 23 24 25 26 27 28 29 30 31 32 33 34 35 36 37 38 39 40 41 42 43 44 45 46 47 48 49 50
000
ASUS44 KLCH 201810
RWRLCH
REGIONAL WEATHER ROUNDUP
NATIONAL WEATHER SERVICE LAKE CHARLES LA
100 PM CDT SUN AUG 20 2017

Note: "fair" indicates few or no clouds below 12,000 feet with no
significant weather and/or obstructions to visibility.


ACROSS SOUTHEAST TEXAS

CITY           SKY/WX    TMP DP  RH WIND       PRES   REMARKS
BEAUMONT       PTSUNNY   90  76  63 S8        30.02F HX 101
BEAUMONT CITY  FAIR      93  73  51 MISG      30.03F HX 102
ORANGE         PTCLDY    92  76  59 E3        30.04F HX 105
JASPER           N/A     93  75  57 S6        30.06F HX 104
$$

ACROSS CENTRAL LOUISIANA

CITY           SKY/WX    TMP DP  RH WIND       PRES   REMARKS
LEESVILLE      TSTM      82  75  78 SW7       30.04S
FULLERTON      FAIR      91  76  61 VRB5      30.00F HX 103
ALEXANDRIA INT PTSUNNY   91  79  67 VRB6      30.02F HX 107
ESLER FIELD    SUNNY     93  75  55 E7        30.04F HX 104
DERIDDER       MOCLDY    90  74  58 S6        30.06F
OAKDALE        PTCLDY    92  77  61 SE5       30.04F HX 105
OPELOUSAS      FAIR      89  76  65 NE3       30.05F HX 101
$$

ACROSS SOUTHWEST AND SOUTH CENTRAL LOUISIANA

CITY           SKY/WX    TMP DP  RH WIND       PRES   REMARKS
SULPHUR        PTCLDY    93  76  57 E6        30.04S HX 105
LAKE CHARLES   MOSUNNY   91  77  63 E9        30.03F HX 104
CHENNAULT INT  PTSUNNY   91  79  66 NE7       30.04F HX 107
CAMERON PHI    PTCLDY    82  75  78 NE12      30.04R
DEQUINCY       MOCLDY    90  75  61 E5        30.03F HX 100
JENNINGS       FAIR      88  76  68 NE5       30.04F
LAFAYETTE      SUNNY     91  74  57 VRB3      30.05F HX 100
NEW IBERIA     MOSUNNY   90  73  57 CALM      30.05F
ABBEVILLE      FAIR      90  77  66 SE3       30.04F HX 102
PATTERSON      SUNNY     90  77  65 E7        30.05F HX 103
SALT POINT       N/A     91  75  59 VRB3      30.02F HX 101
$$

SELECTED SITES ACROSS THE REGION

CITY           SKY/WX    TMP DP  RH WIND       PRES   REMARKS
HOUSTON BUSH   MOSUNNY   94  71  47 S5        30.02F HX 101
HOUSTON HOBBY  MOSUNNY   94  70  45 CALM      30.01F HX 100
GALVESTON      SUNNY     91  78  65 E10       30.03F HX 106
COLLEGE STAT   MOSUNNY   92  71  50 VRB3      30.02F
CONROE         MOSUNNY   92  70  48 VRB5      30.03F
HUNTSVILLE     SUNNY     92  68  45 CALM      30.04F
LUFKIN         SUNNY     93  71  48 CALM      30.03F HX 100
SHREVEPORT     MOSUNNY   96  75  50 NE3       30.03F HX 108
MONROE         PTSUNNY   93  75  55 VRB6      30.05F HX 104
NATCHEZ MS     SUNNY     90  74  59 E6        30.07F
BATON ROUGE    SUNNY     91  74  57 NE3       30.05F HX 100
N.O. INTL ARPT MOSUNNY   92  75  57 NE7       30.04F HX 103
SLIDELL        MOSUNNY   90  72  55 NE3       30.04F
$$

MARINE REPORTS

STATION/POSITION TIME  SKY/WX   TEMP    WIND        PRES    VSBY
                                AIR SEA DIR/SP/G
                 (UTC)          (F)     (DEG/KT/KT) (MB)    (MI)
BUOY 30 S HIGH I 1650            86 88  120/  2/  4 1017.2
WVE H/P(F/S)=  1/ 4

SEA RIM ST PARK  1700            87     170/  7/  9 1017.5R
PORT ARTHUR      1748            83 89  150/ 11/ 16 1017.5R
SABINE PASS N    1748            80 90   10/  7/ 18 1018.6F
TEXAS POINT      NOT AVBL
CALCASIEU PASS   1742               87   30/  7/ 11 1016.6F
LK CHARLES BEACH 1748            92 87              1017.5F
MARSH ISLAND     1700            85                   N/A
FRESH WATER LOCK 1748            87 89   90/  8/ 10 1017.2F
AMERADA PASS     1748            88 86  100/  3/  5 1017.3F
$$



USA.gov is the U.S. government's official web portal to all federal, state and local government web resources and services.